Location: Browne Barr
(41.2080°N, 111.9480°W)
Time: 09:04:52
(UTC+00:00)

STARLINK-1288 - Pass Details

Date: 08 April 2020
Orbit: 549 x 550 km, 53.0° (Epoch: 30 May)

Event Time Altitude Azimuth Distance (km) Brightness Sun altitude
Exits shadow 09:21:20 14° 19° (NNE) 1,567 6.6 -35.0°
Drops below altitude 10° 09:22:27 10° 33° (NNE) 1,832 7.1 -34.9°
Enters shadow 10:26:05 -60° 265° (W) 11,617 10.3 -26.7°
